This is the latest recevied weather packets stored in our database for station/object KP4OZ. If no packets are shown the sender has not sent any weather packets the latest 10 day(s).
| Time | Temp. | Humidity | Pressure | Rain* | Wind** | Luminosity | Snow |
|---|---|---|---|---|---|---|---|
| 1777473774 | 29.44° C | 75% | 1015.4 hPa | 0 mm | - | - | - |
| 1777473470 | 29.44° C | 74% | 1015.1 hPa | 0 mm | - | - | - |
| 1777473166 | 29.44° C | 74% | 1015.3 hPa | 0 mm | - | - | - |
| 1777472863 | 29.44° C | 73% | 1015.5 hPa | 0 mm | - | - | - |
| 1777472559 | 30° C | 72% | 1015.3 hPa | 0 mm | - | - | - |
| 1777472256 | 30.56° C | 71% | 1015.3 hPa | 0 mm | - | - | - |
| 1777471952 | 30.56° C | 64% | 1015.4 hPa | 0 mm | - | - | - |
| 1777471649 | 30.56° C | 64% | 1015.4 hPa | 0 mm | - | - | - |
| 1777471346 | 29.44° C | 66% | 1015.4 hPa | 0 mm | - | - | - |
| 1777471042 | 29.44° C | 68% | 1015.6 hPa | 0 mm | - | - | - |
| 1777470739 | 29.44° C | 68% | 1015.5 hPa | 0 mm | - | - | - |
| 1777470435 | 29.44° C | 70% | 1015.3 hPa | 0 mm | - | - | - |
| 1777470132 | 30° C | 70% | 1015.5 hPa | 0 mm | - | - | - |
| 1777469828 | 30.56° C | 68% | 1015.5 hPa | 0 mm | - | - | - |
| 1777469524 | 30° C | 70% | 1015.5 hPa | 0 mm | - | - | - |
| 1777469219 | 29.44° C | 70% | 1015.5 hPa | 0 mm | - | - | - |
| 1777468919 | 29.44° C | 70% | 1015.4 hPa | 0 mm | - | - | - |
| 1777468616 | 29.44° C | 73% | 1015.7 hPa | 0 mm | - | - | - |
| 1777468312 | 29.44° C | 71% | 1015.5 hPa | 0 mm | - | - | - |
| 1777468008 | 28.89° C | 73% | 1015.4 hPa | 0 mm | - | - | - |
| 1777467705 | 28.89° C | 73% | 1015.4 hPa | 0 mm | - | - | - |
| 1777467400 | 29.44° C | 72% | 1015.4 hPa | 0 mm | - | - | - |
| 1777467096 | 28.89° C | 73% | 1015.5 hPa | 0 mm | - | - | - |
| 1777466793 | 29.44° C | 72% | 1015.4 hPa | 0 mm | - | - | - |
| 1777466491 | 29.44° C | 72% | 1015.5 hPa | 0 mm | - | - | - |
* Rain latest hour (hover to see other rain measurements)
** Current wind speed in m/s (hover to see current wind gust speed)